Location: 5810 Zion Rd, Cleves, OH 45002, USA
(39.1922°N, 84.7113°W)
Time: 06:39:55
(UTC-05:00)

AO-85 - Visible Passes

Search period start: 29 January 2020 00:00
Search period end: 08 February 2020 00:00
Orbit: 519 x 764 km, 64.8° (Epoch: 23 January)

Date Brightness Start Highest point End Pass type
(mag) Time Alt. Az. Time Alt. Az. Time Alt. Az.
29 Jan ? 06:23:37 10° SSW 06:28:17 71° ESE 06:32:37 10° NE visible
30 Jan ? 05:09:37 10° SSE 05:12:46 18° ESE 05:15:48 10° ENE visible
30 Jan ? 06:48:24 10° SW 06:52:52 46° NW 06:57:02 10° NNE visible
31 Jan ? 05:34:16 20° S 05:37:08 44° ESE 05:41:18 10° NE visible
31 Jan ? 07:14:12 10° W 07:17:38 21° NW 07:20:54 10° N visible
01 Feb ? 04:22:30 11° E 04:22:30 11° E 04:23:08 10° E visible
01 Feb ? 06:00:12 42° SW 06:01:37 72° WNW 06:05:57 10° NNE visible
02 Feb ? 04:47:47 22° ENE 04:47:47 22° ENE 04:49:47 10° NE visible
02 Feb ? 06:25:27 28° WNW 06:26:17 30° NW 06:30:05 10° N visible
03 Feb ? 05:12:40 28° NE 05:12:40 28° NE 05:14:46 10° NE visible
03 Feb ? 06:50:19 13° WNW 06:51:11 14° NW 06:53:30 10° NNW visible
04 Feb ? 05:37:17 24° N 05:37:17 24° N 05:39:08 10° NNE visible
05 Feb ? 06:01:42 15° NNW 06:01:42 15° NNW 06:02:58 10° N visible
